Location: Unspecified
(0.0000°N, 0.0000°E)
Time: 21:17:50
(UTC+00:00)

Kosmos-2195 - Visible Passes

Search period start: 04 June 2023 00:00
Search period end: 14 June 2023 00:00
Orbit: 953 x 1010 km, 82.9° (Epoch: 04 June)

Date Brightness Start Highest point End Pass type
(mag) Time Alt. Az. Time Alt. Az. Time Alt. Az.
04 Jun 6.7 05:20:12 10° NNE 05:26:03 46° E 05:31:58 10° SSE visible
04 Jun 7.5 18:26:51 10° SSW 18:32:26 33° W 18:37:59 10° NNW visible
05 Jun 8.5 18:56:31 10° WSW 18:59:33 14° W 19:02:33 10° WNW visible
06 Jun 8.2 04:31:01 10° NE 04:35:06 18° E 04:39:12 10° SE visible
07 Jun 6.8 04:56:24 10° NNE 05:02:11 43° E 05:08:02 10° SSE visible
08 Jun 5.5 05:23:08 10° N 05:29:17 84° W 05:35:34 10° S visible
08 Jun 8.4 18:32:17 10° WSW 18:35:41 15° W 18:39:06 10° NW visible
09 Jun 8.1 04:07:26 10° NE 04:11:15 17° E 04:15:06 10° SE visible
10 Jun 6.8 04:32:38 10° NNE 04:38:20 40° E 04:44:07 10° SSE visible
11 Jun 5.5 04:59:16 10° N 05:05:26 90° W 05:11:44 10° S visible
12 Jun 8.1 03:43:52 10° NE 03:47:24 16° E 03:50:57 10° ESE visible
12 Jun 6.0 05:26:52 10° NNW 05:32:33 39° W 05:38:21 10° SSW visible
13 Jun 6.9 04:08:52 10° NNE 04:14:29 37° E 04:20:11 10° SSE visible
